Location: *
(51.5000°N, 0.1100°W)
Time: 17:42:14
(UTC+00:00)

Cosmos 1833 - Pass Details

Date: 25 May 2024
Orbit: 835 x 863 km, 70.9° (Epoch: 16 June)

Event Time Altitude Azimuth Distance (km) Brightness Sun altitude
Exits shadow 02:33:31 12° 202° (SSW) 2,353 5.9 -9.8°
Maximum altitude 02:38:53 78° 117° (ESE) 864 4.3 -9.3°
Drops below altitude 10° 02:44:31 10° 32° (NNE) 2,462 8.3 -8.8°
Sets 02:46:58 0° 32° (NNE) 3,399 9.6 -8.5°
